Location: Bretagne
(43.8474°N, 0.4650°W)
Time: 14:58:30
(UTC+00:00)

NOSS 3-4 (C) - Pass Details

Date: 15 January 2026
Orbit: 773 x 1438 km, 63.4° (Epoch: 26 December)

Event Time Altitude Azimuth Distance (km) Brightness Sun altitude
Rises 18:56:25 0° 243° (WSW) 3,247 7.5 -22.3°
Reaches altitude 10° 18:58:55 10° 252° (WSW) 2,345 6.6 -22.8°
Maximum altitude 19:03:51 37° 319° (NW) 1,273 4.3 -23.6°
Enters shadow 19:07:06 21° 14° (NNE) 1,878 4.8 -24.2°
